+ View the NASA Portal
+ Center for Near-Earth Object Studies
IMPORTANT:
The SSD Announcement email list is now available. Major changes are coming in the near future, including possible hostname and/or URL changes. To be notified of such changes, subscribe to this email list.
Please visit
this page
for more details.
Don't show this message again
JPL Small-Body Database Browser
Search:
[
help
]
183418 (2003 AY6)
Classification:
Main-belt Asteroid
SPK-ID:
2183418
[
Ephemeris
|
Orbit Diagram
|
Orbital Elements
|
Mission Design
|
Physical Parameters
|
Discovery Circumstances
|
Close-Approach Data
]
[ show orbit diagram ]
Orbital Elements at Epoch 2458600.5 (2019-Apr-27.0) TDB
Reference:
JPL 14
(heliocentric ecliptic J2000)
Element
Value
Uncertainty (1-sigma)
Units
e
.0996294965939416
5.8137e-08
a
2.962003042030337
3.1193e-08
au
q
2.666900170043131
1.7387e-07
au
i
11.50059975324881
6.5042e-06
deg
node
89.42289856399962
2.9246e-05
deg
peri
320.5416952582871
4.1514e-05
deg
M
103.6454746224856
2.8164e-05
deg
t
p
2458064.426275330902
(2017-Nov-06.92627533)
0.0001458
TDB
period
1861.987140140968
5.10
2.9413e-05
8.053e-08
d
yr
n
.1933418294031531
3.0541e-09
deg/d
Q
3.257105914017543
3.4301e-08
au
Orbit Determination Parameters
# obs. used (total)
258
data-arc span
6385 days (17.48 yr)
first obs. used
2001-09-11
last obs. used
2019-03-06
planetary ephem.
DE431
SB-pert. ephem.
SB431-N16
condition code
0
norm. resid. RMS
.59136
source
ORB
producer
Otto Matic
solution date
2019-Jul-13 17:18:45
Additional Information
Earth MOID
= 1.68929 au
Jupiter MOID
= 2.07431 au
T_jup
= 3.228
[ show covariance matrix ]
[
Ephemeris
|
Orbit Diagram
|
Orbital Elements
|
Mission Design
|
Physical Parameters
|
Discovery Circumstances
|
Close-Approach Data
]
Physical Parameter Table
Parameter
Symbol
Value
Units
Sigma
Reference
Notes
absolute magnitude
H
15.5
n/a
MPO260274
183418 (2003 AY6)
Discovered 2003-Jan-02 by LINEAR at Socorro
Reference:
20080420/Numbers.arc
Last Updated:
2008-04-23
[ hide close-approach data ]
Close-Approach Data
...sorted by
Date/Time (TDB)
Date/Time (TDB)
Time Uncertainty
(days_HH:MM)
Body
Nominal Distance (au)
Minimum Distance (au)
Maximum Distance (au)
V-relative (km/s)
V-infinity (km/s)
JD (TDB)
Time Uncertainty (minutes)
Semi-major axis (km)
Semi-minor axis (km)
range-LOV angle (deg)
N-sigma
BP
Orbit Ref.
Reference
Modified
2173-Mar-27 23:02
00:13
Juno
0.0317240806280349
0.0316760665308248
0.0317721284714882
4.68975328189486
4.68975320012242
2514818.459621520
13.4087784902434
2896.40619887762
62.4218210586949
-34.2822193843135
42813.9563104268
T
14
CATAB v2.0e-lin.ifort 2019-Jul-13 17:18:48
2019-Jul-13 17:18
Alternate Designations
2003 AY6
= 2004 EQ114
[
Ephemeris
|
Orbit Diagram
|
Orbital Elements
|
Mission Design
|
Physical Parameters
|
Discovery Circumstances
|
Close-Approach Data
]
2019-Dec-11 00:28 UT
(server date/time)
Site Manager:
Ryan S. Park
Webmaster
:
Alan B. Chamberlin